Air Quality Table

TIMESTAMP NO2 SO2 O3 PM10 PM2.5 CO TEMP HUM AIRPRES WS WD NO BENZENE
2022-10-04 17:00 21.45 µg/m3 0.07 µg/m3 55.02 µg/m3 24 µg/m3 7.34 µg/m3 0.42 mg/m3 24.95 °C 65.61 % 1,017.71 mbar 2.29 m/s 153.4 Deg 8.46 µg/m3 6.51 µg/m3
2022-10-04 09:00 38.57 µg/m3 0.05 µg/m3 33.03 µg/m3 17.86 µg/m3 6.55 µg/m3 0.48 mg/m3 22.94 °C 79.72 % 1,015.01 mbar 1.11 m/s 157.34 Deg 17.52 µg/m3 4.91 µg/m3
2022-10-04 01:00 12.51 µg/m3 -0.31 µg/m3 54.86 µg/m3 15.66 µg/m3 6.68 µg/m3 0.51 mg/m3 23.29 °C 80.18 % 1,014.54 mbar 1.53 m/s 246.84 Deg 1.83 µg/m3 2.68 µg/m3
2022-10-03 17:00 10.94 µg/m3 -0.28 µg/m3 67.69 µg/m3 14.33 µg/m3 6.24 µg/m3 0.38 mg/m3 25.17 °C 72.19 % 1,015.62 mbar 4.6 m/s 307.99 Deg 3.41 µg/m3 7.02 µg/m3
2022-10-03 09:00 19.92 µg/m3 -0.28 µg/m3 44.95 µg/m3 14.05 µg/m3 5.64 µg/m3 0.32 mg/m3 22.79 °C 79.55 % 1,017.08 mbar 2.18 m/s 292.86 Deg 4.02 µg/m3 7.11 µg/m3
2022-10-03 01:00 12.64 µg/m3 -0.36 µg/m3 57.35 µg/m3 16.19 µg/m3 6.93 µg/m3 0.23 mg/m3 23.35 °C 80.5 % 1,019.73 mbar 2.12 m/s 294.54 Deg 1.49 µg/m3 1.35 µg/m3
2022-10-02 17:00 10.03 µg/m3 -0.23 µg/m3 70.32 µg/m3 11.79 µg/m3 4.73 µg/m3 0.27 mg/m3 24.43 °C 63.65 % 1,022.26 mbar 4.12 m/s 288.2 Deg 2.56 µg/m3 1.38 µg/m3
2022-10-02 09:00 9.56 µg/m3 -0.39 µg/m3 68.58 µg/m3 11.57 µg/m3 4.25 µg/m3 0.38 mg/m3 22.72 °C 62.3 % 1,022.49 mbar 3.59 m/s 281.74 Deg 0.58 µg/m3 3.68 µg/m3
2022-10-02 01:00 8.83 µg/m3 -0.36 µg/m3 64.78 µg/m3 17.35 µg/m3 6.91 µg/m3 0.58 mg/m3 24.15 °C 66.47 % 1,020.69 mbar 3.85 m/s 333.24 Deg 1.36 µg/m3 1.4 µg/m3
2022-10-01 17:00 12.03 µg/m3 -0.32 µg/m3 64.3 µg/m3 30.8 µg/m3 12.97 µg/m3 0.51 mg/m3 26.16 °C 79.79 % 1,017.12 mbar 4.22 m/s 190.17 Deg 3.98 µg/m3 1.56 µg/m3
2022-10-01 09:00 13.11 µg/m3 -0.36 µg/m3 58.29 µg/m3 43.77 µg/m3 19.08 µg/m3 0.39 mg/m3 25.46 °C 93.04 % 1,012.02 mbar 3.73 m/s 72.22 Deg 1.87 µg/m3 2.39 µg/m3
2022-10-01 01:00 11.43 µg/m3 -0.26 µg/m3 47.53 µg/m3 42.58 µg/m3 17.57 µg/m3 0.36 mg/m3 25.78 °C 89.07 % 1,009.28 mbar 1.72 m/s 163.69 Deg 1.62 µg/m3 3.09 µg/m3
2022-09-30 17:00 22.29 µg/m3 -0.19 µg/m3 47.61 µg/m3 38.3 µg/m3 13.49 µg/m3 0.41 mg/m3 27.27 °C 78.8 % 1,009.62 mbar 1.7 m/s 148.36 Deg 6.87 µg/m3 4.05 µg/m3
2022-09-30 09:00 41.98 µg/m3 0.15 µg/m3 26.31 µg/m3 19.59 µg/m3 7.74 µg/m3 0.52 mg/m3 23.96 °C 83.5 % 1,008.63 mbar 0.58 m/s 180.51 Deg 17.8 µg/m3 5.02 µg/m3
2022-09-30 01:00 43 µg/m3 0.11 µg/m3 528.37 µg/m3 13.06 µg/m3 6.11 µg/m3 0.62 mg/m3 23.71 °C 74.77 % 1,008.85 mbar 0.98 m/s 200.78 Deg 11.4 µg/m3 4.33 µg/m3
2022-09-29 17:00 23.56 µg/m3 -0.01 µg/m3 60.16 µg/m3 11.84 µg/m3 4.88 µg/m3 0.51 mg/m3 26.82 °C 57.83 % 1,008.59 mbar 4.22 m/s 238.08 Deg 9.91 µg/m3 1.26 µg/m3
2022-09-29 09:00 39.9 µg/m3 0.17 µg/m3 32.71 µg/m3 12.71 µg/m3 4.83 µg/m3 0.53 mg/m3 22.49 °C 74.84 % 1,009.04 mbar 1.69 m/s 234.02 Deg 21.65 µg/m3 5.31 µg/m3
2022-09-29 01:00 22.65 µg/m3 -0.14 µg/m3 48.93 µg/m3 11.63 µg/m3 5.09 µg/m3 0.56 mg/m3 22.55 °C 71.72 % 1,009.57 mbar 1.29 m/s 242.02 Deg 6.12 µg/m3 1.46 µg/m3
2022-09-28 17:00 15.48 µg/m3 -0.34 µg/m3 69.79 µg/m3 11.08 µg/m3 4.82 µg/m3 0.43 mg/m3 25.29 °C 63.43 % 1,009.38 mbar 4.24 m/s 283.15 Deg 5.5 µg/m3 3.11 µg/m3
2022-09-28 09:00 26.74 µg/m3 -0.29 µg/m3 57.83 µg/m3 9.64 µg/m3 4.06 µg/m3 0.42 mg/m3 23.33 °C 70.26 % 1,009.33 mbar 1.92 m/s 268.44 Deg 7.45 µg/m3 2.48 µg/m3
2022-09-28 01:00 12.98 µg/m3 -0.34 µg/m3 65.99 µg/m3 10.64 µg/m3 4.82 µg/m3 0.4 mg/m3 23.76 °C 72.84 % 1,009.63 mbar 1.45 m/s 298.1 Deg 1.45 µg/m3 2.14 µg/m3
2022-09-27 17:00 15.54 µg/m3 -0.33 µg/m3 68.66 µg/m3 14.88 µg/m3 7.05 µg/m3 0.3 mg/m3 25.64 °C 74.1 % 1,009.11 mbar 3.54 m/s 284.38 Deg 4.56 µg/m3 1.65 µg/m3
2022-09-27 09:00 23.27 µg/m3 -0.3 µg/m3 55.78 µg/m3 19.04 µg/m3 8.4 µg/m3 0.37 mg/m3 24.92 °C 75.06 % 1,008.72 mbar 2.19 m/s 276.71 Deg 3.95 µg/m3 1.69 µg/m3
2022-09-27 01:00 12.02 µg/m3 -0.34 µg/m3 62.64 µg/m3 35.86 µg/m3 13.56 µg/m3 0.63 mg/m3 26.01 °C 80.97 % 1,008.86 mbar 2.78 m/s 242.58 Deg 2.03 µg/m3 3.74 µg/m3
2022-09-26 17:00 23 µg/m3 -0.1 µg/m3 48.25 µg/m3 31.58 µg/m3 13.02 µg/m3 0.61 mg/m3 27.95 °C 70.41 % 1,009.80 mbar 4.56 m/s 216.94 Deg 12.59 µg/m3 3.44 µg/m3
2022-09-26 09:00 33.3 µg/m3 -0.14 µg/m3 45.71 µg/m3 18.26 µg/m3 7.66 µg/m3 0.44 mg/m3 24.89 °C 76.14 % 1,011.99 mbar 2.03 m/s 222.88 Deg 11.84 µg/m3 4.36 µg/m3
2022-09-26 01:00 22.9 µg/m3 -0.18 µg/m3 53.73 µg/m3 13.54 µg/m3 6.08 µg/m3 0.27 mg/m3 24.79 °C 71.9 % 1,014.40 mbar 2.15 m/s 219.5 Deg 5.75 µg/m3 2.16 µg/m3
2022-09-25 17:00 21.94 µg/m3 -0.01 µg/m3 59.81 µg/m3 15.45 µg/m3 6.79 µg/m3 0.26 mg/m3 26.84 °C 63.51 % 1,015.04 mbar 4.24 m/s 214.94 Deg 8.35 µg/m3 3.29 µg/m3
2022-09-25 09:00 46.47 µg/m3 0.44 µg/m3 24.25 µg/m3 15.5 µg/m3 7.3 µg/m3 0.65 mg/m3 22.45 °C 77.7 % 1,015.92 mbar 0.79 m/s 203.21 Deg 20.18 µg/m3 2.29 µg/m3
2022-09-25 01:00 54.9 µg/m3 0.84 µg/m3 19.46 µg/m3 21.22 µg/m3 10.26 µg/m3 0.83 mg/m3 21.6 °C 75.55 % 1,017.91 mbar 0.49 m/s 200.96 Deg 38.44 µg/m3 3.87 µg/m3
2022-09-24 17:00 26.24 µg/m3 0.24 µg/m3 68.65 µg/m3 19.66 µg/m3 6.86 µg/m3 0.64 mg/m3 24.9 °C 48.34 % 1,018.93 mbar 1.95 m/s 150.58 Deg 11.24 µg/m3 3.4 µg/m3
2022-09-24 09:00 39.15 µg/m3 0.18 µg/m3 47.24 µg/m3 18.57 µg/m3 7.36 µg/m3 0.51 mg/m3 21.64 °C 58.55 % 1,018.17 mbar 1.1 m/s 177.28 Deg 19.3 µg/m3 0.81 µg/m3
2022-09-24 01:00 29.75 µg/m3 -0.02 µg/m3 54.09 µg/m3 16.15 µg/m3 5.75 µg/m3 0.42 mg/m3 21.95 °C 60.17 % 1,017.10 mbar 1.29 m/s 175.38 Deg 3.63 µg/m3 3.13 µg/m3
2022-09-23 17:00 21.33 µg/m3 -0.05 µg/m3 61.32 µg/m3 23.71 µg/m3 7.93 µg/m3 0.38 mg/m3 22.97 °C 66.97 % 1,014.78 mbar 3.74 m/s 83.65 Deg 6.42 µg/m3 1.54 µg/m3
2022-09-23 09:00 15.83 µg/m3 0.01 µg/m3 64.76 µg/m3 19.38 µg/m3 7.53 µg/m3 0.27 mg/m3 20.63 °C 81.84 % 1,011.83 mbar 2.87 m/s 97.04 Deg 1.55 µg/m3 3.01 µg/m3
2022-09-23 01:00 23.02 µg/m3 0.21 µg/m3 45.7 µg/m3 14.72 µg/m3 6.06 µg/m3 0.29 mg/m3 20.26 °C 91.04 % 1,012.47 mbar 1.08 m/s 161.55 Deg 3.47 µg/m3 1.8 µg/m3
2022-09-22 17:00 44.95 µg/m3 0.36 µg/m3 30.21 µg/m3 18.98 µg/m3 8.03 µg/m3 0.36 mg/m3 20.57 °C 91.48 % 1,013.90 mbar 1.17 m/s 199.6 Deg 20.33 µg/m3 2.37 µg/m3
2022-09-22 09:00 22.93 µg/m3 0.11 µg/m3 57.13 µg/m3 27.2 µg/m3 7.89 µg/m3 0.4 mg/m3 24.38 °C 75.08 % 1,012.23 mbar 1.9 m/s 142.48 Deg 3.53 µg/m3 1.82 µg/m3
2022-09-22 01:00 38.2 µg/m3 0.45 µg/m3 43.53 µg/m3 15.67 µg/m3 7.93 µg/m3 0.33 mg/m3 24.22 °C 71.86 % 1,012.80 mbar 1.16 m/s 191.09 Deg 13.42 µg/m3 3.53 µg/m3
2022-09-21 17:00 14.58 µg/m3 0.27 µg/m3 73.42 µg/m3 12.59 µg/m3 5.9 µg/m3 0.3 mg/m3 26.81 °C 63.74 % 1,012.18 mbar 3.32 m/s 217.5 Deg 4.17 µg/m3 2.34 µg/m3
2022-09-21 09:00 31.73 µg/m3 0.31 µg/m3 37.04 µg/m3 16.51 µg/m3 6.8 µg/m3 0.52 mg/m3 24.08 °C 80.23 % 1,011.70 mbar 1.03 m/s 227.24 Deg 12.62 µg/m3 2.09 µg/m3
2022-09-21 01:00 46.51 µg/m3 0.69 µg/m3 37.17 µg/m3 19.62 µg/m3 8.26 µg/m3 0.66 mg/m3 24.99 °C 81.64 % 1,011.74 mbar 0.7 m/s 198.45 Deg 14.15 µg/m3 4.74 µg/m3
2022-09-20 17:00 22 µg/m3 0.35 µg/m3 69.89 µg/m3 16.2 µg/m3 5.34 µg/m3 0.61 mg/m3 26.76 °C 78.25 % 1,011.24 mbar 2.76 m/s 71 Deg 7.2 µg/m3 6.49 µg/m3
2022-09-20 09:00 37.22 µg/m3 0.86 µg/m3 24.2 µg/m3 22.23 µg/m3 9.07 µg/m3 0.68 mg/m3 24.51 °C 86.94 % 1,011.03 mbar 1.04 m/s 175.55 Deg 44.94 µg/m3 7.78 µg/m3
2022-09-20 01:00 37.41 µg/m3 0.4 µg/m3 40.87 µg/m3 20.87 µg/m3 8.1 µg/m3 0.64 mg/m3 25.43 °C 73.98 % 1,011.73 mbar 0.92 m/s 229.68 Deg 9.1 µg/m3 3.87 µg/m3
2022-09-19 17:00 24.09 µg/m3 0.4 µg/m3 70.22 µg/m3 12.37 µg/m3 4.47 µg/m3 0.48 mg/m3 28.07 °C 53.71 % 1,012.84 mbar 3.11 m/s 259.88 Deg 8.4 µg/m3 0.78 µg/m3
2022-09-19 09:00 53.05 µg/m3 0.86 µg/m3 27.8 µg/m3 27.2 µg/m3 9.84 µg/m3 0.59 mg/m3 22.57 °C 71.69 % 1,013.00 mbar 1.02 m/s 231.99 Deg 43.39 µg/m3 5.29 µg/m3
2022-09-19 01:00 48.77 µg/m3 0.54 µg/m3 38.78 µg/m3 18.92 µg/m3 7.03 µg/m3 0.36 mg/m3 23.48 °C 62.74 % 1,013.52 mbar 1.2 m/s 182.61 Deg 26.69 µg/m3 1.69 µg/m3
2022-09-18 17:00 13.26 µg/m3 0.19 µg/m3 76.61 µg/m3 21.98 µg/m3 9.93 µg/m3 0.36 mg/m3 27.1 °C 60.21 % 1,012.67 mbar 3.98 m/s 185.01 Deg 4.21 µg/m3 0.76 µg/m3
2022-09-18 09:00 15.81 µg/m3 0.03 µg/m3 63.86 µg/m3 20.73 µg/m3 8.95 µg/m3 0.4 mg/m3 25.71 °C 69.65 % 1,010.40 mbar 1.79 m/s 287.86 Deg 1.54 µg/m3 0.54 µg/m3
2022-09-18 01:00 14.27 µg/m3 0.01 µg/m3 61.66 µg/m3 17.6 µg/m3 8 µg/m3 0.49 mg/m3 26.63 °C 72.68 % 1,009.14 mbar 2.38 m/s 297.32 Deg 2.66 µg/m3 0.69 µg/m3
2022-09-17 17:00 15.21 µg/m3 0.09 µg/m3 61.14 µg/m3 24.59 µg/m3 9.4 µg/m3 0.47 mg/m3 28.9 °C 65.96 % 1,008.34 mbar 4.8 m/s 277.96 Deg 5.77 µg/m3 2.37 µg/m3
2022-09-17 09:00 25.43 µg/m3 0.27 µg/m3 40.11 µg/m3 34.44 µg/m3 9.19 µg/m3 0.55 mg/m3 26.25 °C 76.21 % 1,009.06 mbar 2.2 m/s 256.83 Deg 7.21 µg/m3 5.53 µg/m3
2022-09-17 01:00 34.13 µg/m3 0.76 µg/m3 26.25 µg/m3 16.83 µg/m3 6.26 µg/m3 0.82 mg/m3 26.22 °C 81.58 % 1,009.22 mbar 1.12 m/s 221.57 Deg 14.96 µg/m3 3.35 µg/m3
2022-09-16 17:00 21.88 µg/m3 0.56 µg/m3 49.99 µg/m3 13.99 µg/m3 5.57 µg/m3 0.64 mg/m3 29.26 °C 68.02 % 1,011.29 mbar 2.93 m/s 257.85 Deg 10.4 µg/m3 1.66 µg/m3
2022-09-16 09:00 43.42 µg/m3 0.79 µg/m3 25.25 µg/m3 15.36 µg/m3 6.07 µg/m3 0.58 mg/m3 25.18 °C 84.43 % 1,011.70 mbar 1.32 m/s 215.33 Deg 26.39 µg/m3 N/A
2022-09-16 01:00 34.09 µg/m3 0.97 µg/m3 29.59 µg/m3 18.44 µg/m3 7.78 µg/m3 0.33 mg/m3 25.99 °C 81.21 % 1,012.62 mbar 1.02 m/s 217.06 Deg 12.48 µg/m3 N/A
2022-09-15 17:00 24.64 µg/m3 0.76 µg/m3 46.92 µg/m3 13.68 µg/m3 5.57 µg/m3 0.21 mg/m3 29.2 °C 63.78 % 1,014.19 mbar 2.97 m/s 231.68 Deg 12.95 µg/m3 N/A
2022-09-15 09:00 44.16 µg/m3 0.46 µg/m3 21.93 µg/m3 17.78 µg/m3 7.92 µg/m3 0 mg/m3 24.45 °C 80.14 % 1,014.69 mbar 1.07 m/s 224.54 Deg 32.17 µg/m3 N/A
2022-09-15 01:00 36.19 µg/m3 0.85 µg/m3 20.83 µg/m3 15.03 µg/m3 6.56 µg/m3 0 mg/m3 25.5 °C 74.85 % 1,015.41 mbar 1.11 m/s 208.76 Deg 17.91 µg/m3 N/A
2022-09-14 17:00 21.98 µg/m3 1.22 µg/m3 51.29 µg/m3 12.31 µg/m3 4.55 µg/m3 0.65 mg/m3 28.62 °C 63.21 % 1,015.65 mbar 3.08 m/s 199.34 Deg 11.76 µg/m3 N/A
2022-09-14 09:00 46.55 µg/m3 0 µg/m3 17.03 µg/m3 18.18 µg/m3 7.46 µg/m3 0.65 mg/m3 24.06 °C 81.71 % 1,014.45 mbar 0.58 m/s 200.79 Deg 67.61 µg/m3 N/A
2022-09-14 01:00 33.64 µg/m3 0 µg/m3 27.85 µg/m3 14.81 µg/m3 5.14 µg/m3 0.56 mg/m3 25.2 °C 75.82 % 1,013.64 mbar 0.92 m/s 225.63 Deg 12.57 µg/m3 N/A
2022-09-13 17:00 20.16 µg/m3 0 µg/m3 56.64 µg/m3 12 µg/m3 4.69 µg/m3 0.58 mg/m3 27.83 °C 68.08 % 1,013.03 mbar 2.98 m/s 185.64 Deg 9.02 µg/m3 N/A
2022-09-13 09:00 45.39 µg/m3 0 µg/m3 27.86 µg/m3 18.92 µg/m3 7.58 µg/m3 0.56 mg/m3 24.34 °C 80.35 % 1,012.23 mbar 0.66 m/s 211.99 Deg 30.47 µg/m3 N/A
2022-09-13 01:00 27.41 µg/m3 0 µg/m3 47.95 µg/m3 13.79 µg/m3 5.68 µg/m3 0.6 mg/m3 25.7 °C 73.83 % 1,012.46 mbar 0.99 m/s 174.11 Deg 4.94 µg/m3 N/A
2022-09-12 17:00 17.82 µg/m3 0 µg/m3 65.61 µg/m3 12.69 µg/m3 4.61 µg/m3 0.53 mg/m3 28.12 °C 61.3 % 1,012.98 mbar 2.58 m/s 71.91 Deg 7.88 µg/m3 N/A
2022-09-12 09:00 31.75 µg/m3 0.83 µg/m3 32.59 µg/m3 18.04 µg/m3 7.2 µg/m3 0.49 mg/m3 25.65 °C 74.7 % 1,012.10 mbar 1.61 m/s 151.74 Deg 33.4 µg/m3 N/A
2022-09-12 01:00 12.34 µg/m3 0.3 µg/m3 53.45 µg/m3 14.75 µg/m3 5.99 µg/m3 0.39 mg/m3 27.8 °C 68.03 % 1,012.31 mbar 2.56 m/s 275.37 Deg 2.26 µg/m3 N/A
2022-09-11 17:00 10.14 µg/m3 0.34 µg/m3 67.42 µg/m3 13.77 µg/m3 5.56 µg/m3 0.41 mg/m3 29.11 °C 68.55 % 1,013.75 mbar 4.65 m/s 279.77 Deg 3.36 µg/m3 N/A
2022-09-11 09:00 17.84 µg/m3 0.3 µg/m3 47.61 µg/m3 15.19 µg/m3 6.06 µg/m3 0.45 mg/m3 27.12 °C 73.34 % 1,013.36 mbar 1.72 m/s 271.59 Deg 3.74 µg/m3 N/A
2022-09-11 01:00 16.6 µg/m3 0.31 µg/m3 45.97 µg/m3 32.45 µg/m3 13.76 µg/m3 0.48 mg/m3 27.47 °C 85.82 % 1,014.23 mbar 2.3 m/s 268.58 Deg 3.69 µg/m3 N/A
2022-09-10 17:00 15.55 µg/m3 0.59 µg/m3 54.03 µg/m3 36.66 µg/m3 15 µg/m3 0.59 mg/m3 29.57 °C 80.6 % 1,014.97 mbar 2.65 m/s 207.81 Deg 5.47 µg/m3 N/A
2022-09-10 09:00 29.26 µg/m3 0.68 µg/m3 36.94 µg/m3 33.61 µg/m3 14.57 µg/m3 0.58 mg/m3 26.98 °C 93.43 % 1,014.77 mbar 1.28 m/s 232.62 Deg 12.33 µg/m3 N/A
2022-09-10 01:00 28.26 µg/m3 0.57 µg/m3 42.46 µg/m3 27.79 µg/m3 13.73 µg/m3 0.62 mg/m3 27.83 °C 84.79 % 1,015.01 mbar 1.83 m/s 232 Deg 7.53 µg/m3 N/A
2022-09-09 17:00 20.02 µg/m3 0.51 µg/m3 50.47 µg/m3 27.56 µg/m3 11.98 µg/m3 0.52 mg/m3 30.8 °C 68.4 % 1,015.42 mbar 3.98 m/s 237.55 Deg 9.31 µg/m3 N/A
2022-09-09 09:00 32.65 µg/m3 0.53 µg/m3 37.1 µg/m3 18.47 µg/m3 8.62 µg/m3 0.58 mg/m3 26.71 °C 86.47 % 1,014.84 mbar 1.59 m/s 246.67 Deg 13.96 µg/m3 N/A
2022-09-09 01:00 36.06 µg/m3 0.8 µg/m3 32.78 µg/m3 18.76 µg/m3 9.37 µg/m3 0.64 mg/m3 27.08 °C 85.29 % 1,015.37 mbar 1.14 m/s 226.75 Deg 12.41 µg/m3 N/A
2022-09-08 17:00 16.13 µg/m3 0.45 µg/m3 57.22 µg/m3 13.38 µg/m3 6.1 µg/m3 0.49 mg/m3 30.06 °C 67.68 % 1,015.49 mbar 3.77 m/s 249.24 Deg 5.98 µg/m3 N/A
2022-09-08 09:00 29.64 µg/m3 0.49 µg/m3 38.28 µg/m3 12.59 µg/m3 5.8 µg/m3 0.58 mg/m3 26.29 °C 83.72 % 1,014.75 mbar 1.12 m/s 237.23 Deg 8.33 µg/m3 N/A
2022-09-08 01:00 37.34 µg/m3 0.77 µg/m3 26.51 µg/m3 18.06 µg/m3 8.98 µg/m3 0.6 mg/m3 26.68 °C 83.02 % 1,015.89 mbar 1.13 m/s 220.93 Deg 14.38 µg/m3 N/A
2022-09-07 17:00 20.19 µg/m3 0.41 µg/m3 56.33 µg/m3 17.02 µg/m3 7.6 µg/m3 0.41 mg/m3 29.46 °C 68.74 % 1,016.46 mbar 4.03 m/s 246.25 Deg 7.19 µg/m3 N/A
2022-09-07 09:00 38.32 µg/m3 0.27 µg/m3 36.47 µg/m3 19.89 µg/m3 8.05 µg/m3 0.5 mg/m3 26 °C 83.85 % 1,016.18 mbar 1.34 m/s 217.11 Deg 16.95 µg/m3 N/A
2022-09-07 01:00 32.99 µg/m3 0.35 µg/m3 39.59 µg/m3 18.11 µg/m3 9.65 µg/m3 0.63 mg/m3 26.38 °C 77.34 % 1,017.42 mbar 1.01 m/s 208.4 Deg 7.43 µg/m3 N/A
2022-09-06 17:00 18.07 µg/m3 0.12 µg/m3 77.57 µg/m3 16.02 µg/m3 6.76 µg/m3 0.59 mg/m3 28.6 °C 64.75 % 1,018.22 mbar 2.78 m/s 121.44 Deg 5.6 µg/m3 N/A
2022-09-06 09:00 34.11 µg/m3 0.12 µg/m3 37.69 µg/m3 23.31 µg/m3 9.41 µg/m3 0.5 mg/m3 25.6 °C 83.24 % 1,018.37 mbar 0.99 m/s 146.32 Deg 9.51 µg/m3 N/A
2022-09-06 01:00 18.33 µg/m3 0.17 µg/m3 803 µg/m3 26.27 µg/m3 11.63 µg/m3 0.49 mg/m3 26.97 °C 79.34 % 1,018.09 mbar 0.97 m/s 143.91 Deg 2.37 µg/m3 N/A
2022-09-05 17:00 20.09 µg/m3 0.12 µg/m3 57.51 µg/m3 41.52 µg/m3 15.6 µg/m3 0.54 mg/m3 29.31 °C 72.31 % 1,018.30 mbar 2.82 m/s 152.16 Deg 7.95 µg/m3 N/A
2022-09-05 09:00 34.17 µg/m3 0.2 µg/m3 31.36 µg/m3 41.77 µg/m3 15.14 µg/m3 0.52 mg/m3 27.18 °C 81.65 % 1,017.00 mbar 1.36 m/s 155.98 Deg 10.16 µg/m3 N/A

It is to be noted that the data is provisional and subject to quality assurance procedures. For validated data kindly refer your request to contact.air@era.org.mt